TimeHST,TemperatureF,Dew PointF,Humidity,Sea Level PressureIn,VisibilityMPH,Wind Direction,Wind SpeedMPH,Gust SpeedMPH,PrecipitationIn,Events,Conditions,WindDirDegrees,DateUTC
12:55 AM,68.5,63.9,85,30.00,10.0,West,3.5,-,N/A,,Overcast,280,2013-07-01 10:55:00
1:55 AM,69.3,64.6,85,29.99,10.0,West,4.6,-,N/A,,Overcast,280,2013-07-01 11:55:00
2:55 AM,68.9,64.2,85,29.98,10.0,NNW,4.6,-,N/A,,Partly Cloudy,330,2013-07-01 12:55:00
3:55 AM,70.2,64.6,82,29.98,10.0,NNW,3.5,-,N/A,,Partly Cloudy,330,2013-07-01 13:55:00
4:49 AM,68.0,62.6,83,29.98,10.0,NW,5.8,-,N/A,,Light Drizzle,320,2013-07-01 14:49:00
4:55 AM,68.2,64.6,88,29.99,10.0,NNW,6.9,-,0.00,,Light Drizzle,340,2013-07-01 14:55:00
5:15 AM,68.0,64.4,88,29.98,10.0,WSW,3.5,-,N/A,,Mostly Cloudy,250,2013-07-01 15:15:00
5:54 AM,68.0,64.4,88,29.99,10.0,Calm,Calm,-,N/A,,Light Drizzle,0,2013-07-01 15:54:00
5:55 AM,67.3,64.4,90,29.99,10.0,Calm,Calm,-,0.00,,Light Drizzle,0,2013-07-01 15:55:00
6:19 AM,68.0,64.4,88,30.00,10.0,WNW,3.5,-,N/A,,Mostly Cloudy,290,2013-07-01 16:19:00
6:55 AM,68.2,65.1,90,30.01,10.0,WNW,6.9,-,0.01,,Scattered Clouds,300,2013-07-01 16:55:00
7:55 AM,73.4,67.3,81,30.01,10.0,North,3.5,-,N/A,,Clear,360,2013-07-01 17:55:00
8:55 AM,76.1,66.2,71,30.02,10.0,ENE,6.9,-,N/A,,Mostly Cloudy,60,2013-07-01 18:55:00
9:55 AM,76.6,66.0,70,30.02,10.0,East,11.5,-,N/A,,Overcast,80,2013-07-01 19:55:00
10:55 AM,79.2,66.6,65,30.01,10.0,East,9.2,-,N/A,,Scattered Clouds,80,2013-07-01 20:55:00
11:55 AM,79.5,66.4,64,30.00,10.0,ENE,8.1,-,N/A,,Partly Cloudy,60,2013-07-01 21:55:00
12:06 PM,78.8,66.2,65,30.01,10.0,ENE,11.5,-,N/A,,Light Drizzle,60,2013-07-01 22:06:00
12:15 PM,78.8,66.2,65,30.01,10.0,NNE,10.4,-,N/A,,Mostly Cloudy,20,2013-07-01 22:15:00
12:35 PM,78.8,66.2,65,30.00,10.0,NE,12.7,-,N/A,,Light Drizzle,50,2013-07-01 22:35:00
12:44 PM,78.8,68.0,69,30.00,10.0,NE,10.4,-,N/A,,Overcast,40,2013-07-01 22:44:00
12:55 PM,78.8,66.6,66,29.99,10.0,ENE,10.4,19.6,0.00,,Mostly Cloudy,60,2013-07-01 22:55:00
1:55 PM,80.4,64.6,58,29.97,10.0,ENE,10.4,18.4,N/A,,Scattered Clouds,70,2013-07-01 23:55:00
2:55 PM,81.3,64.9,57,29.97,10.0,NE,15.0,-,N/A,,Mostly Cloudy,50,2013-07-02 00:55:00
4:55 PM,76.3,66.6,72,29.97,10.0,NNE,8.1,-,N/A,,Mostly Cloudy,30,2013-07-02 02:55:00
5:05 PM,75.2,66.2,73,29.97,10.0,NE,10.4,-,N/A,,Mostly Cloudy,50,2013-07-02 03:05:00
5:12 PM,75.2,66.2,73,29.97,10.0,Variable,4.6,-,N/A,,Mostly Cloudy,0,2013-07-02 03:12:00
5:24 PM,75.2,66.2,73,29.97,10.0,Variable,4.6,-,N/A,,Mostly Cloudy,0,2013-07-02 03:24:00
5:55 PM,75.2,66.7,75,29.97,10.0,NNE,10.4,-,N/A,,Mostly Cloudy,30,2013-07-02 03:55:00
6:55 PM,73.4,66.7,80,29.98,10.0,ENE,6.9,-,N/A,,Scattered Clouds,70,2013-07-02 04:55:00
7:12 PM,73.4,66.2,78,29.98,9.0,NE,8.1,-,N/A,,Light Drizzle,50,2013-07-02 05:12:00
7:20 PM,73.4,66.2,78,29.98,10.0,NNE,6.9,-,N/A,,Mostly Cloudy,30,2013-07-02 05:20:00
7:39 PM,73.4,66.2,78,29.99,10.0,NE,10.4,-,N/A,,Light Drizzle,40,2013-07-02 05:39:00
7:50 PM,71.6,66.2,83,29.99,10.0,NE,10.4,-,N/A,,Scattered Clouds,50,2013-07-02 05:50:00
7:55 PM,72.0,66.7,84,29.99,10.0,NE,8.1,-,0.00,,Partly Cloudy,40,2013-07-02 05:55:00
8:55 PM,70.9,65.7,83,29.99,10.0,ENE,3.5,-,N/A,,Scattered Clouds,60,2013-07-02 06:55:00
9:51 PM,71.6,66.2,83,29.99,10.0,NNW,6.9,-,N/A,,Light Drizzle,340,2013-07-02 07:51:00
9:55 PM,71.4,65.8,82,29.99,10.0,NNW,8.1,-,0.00,,Light Drizzle,340,2013-07-02 07:55:00
10:04 PM,71.6,66.2,83,29.99,10.0,NNW,5.8,-,N/A,,Mostly Cloudy,340,2013-07-02 08:04:00
10:30 PM,71.6,66.2,83,29.99,10.0,Calm,Calm,-,N/A,,Light Drizzle,0,2013-07-02 08:30:00
10:55 PM,71.2,66.6,85,29.99,10.0,NW,3.5,-,0.00,,Light Drizzle,320,2013-07-02 08:55:00
10:57 PM,71.6,66.2,83,29.99,10.0,NW,3.5,-,N/A,,Mostly Cloudy,310,2013-07-02 08:57:00
11:09 PM,71.6,66.2,83,29.99,10.0,Variable,5.8,-,N/A,,Light Drizzle,0,2013-07-02 09:09:00
11:15 PM,71.6,66.2,83,29.99,10.0,North,4.6,-,N/A,,Mostly Cloudy,10,2013-07-02 09:15:00
11:24 PM,71.6,66.2,83,29.99,10.0,NNW,6.9,-,N/A,,Light Drizzle,340,2013-07-02 09:24:00
11:34 PM,71.6,66.2,83,29.99,10.0,NE,3.5,-,N/A,,Overcast,40,2013-07-02 09:34:00
11:55 PM,72.0,66.4,83,29.98,10.0,NE,4.6,-,0.00,,Overcast,40,2013-07-02 09:55:00